User: anonymous
Location: Fishcreek Rd Observing Site
(41.1865°N, 81.4271°W)
Time: 13:11:56
(UTC-04:00)
Language:

Iridium 75 - Orbit

View from above orbital plane
View from above orbital plane
View from above satellite
View from above satellite

Ground track
Ground track

The orbit data is extracted from the following two-line orbital elements,

1 25346U 98032E   14210.44040438  .00000362  00000-0  12212-3 0  9102
2 25346 086.3984 304.5430 0002319 110.4362 008.8288 14.34215473848638
Epoch (UTC): 29 July 2014 10:34:10
Eccentricity: 0.0002319
inclination: 86.3984°
perigee height: 776 km
apogee height: 779 km
right ascension of ascending node: 304.5430°
argument of perigee: 110.4362°
revolutions per day: 14.34215473
mean anomaly at epoch: 8.8288°
orbit number at epoch: 84863

The dashed part of the orbit path shows where the satellite is in the earth's shadow,  

DLR